Vertical_Velocity
1 -1 -1 2 2 -1 -2 3 4 -1 -12 -8 -5 -3 0 -0 -3 -7 -3 0 -6 9 2 -2 -10 10 12 3 -8 -5 1 -3 -2 3 1 -4 -2 1
0 -1 1 2 -2 -0 2 3 4 6 2 -2 -4 -5 -4 2 1 -1 -4 -2 -2 -3 5 4 -4 -12 51 -9 -5 -5 -0 -3 -0 0 3 -4 -0 1
0 -1 -5 -2 -1 -0 2 3 0 4 5 -19 -6 2 -2 -8 3 0 -5 -0 -1 -0 6 -2 -3 -6 24 13 -1 -4 -1 -5 0 -4 2 -2 -1 -1
-2 -0 -2 0 -4 -1 -3 -1 1 3 6 -3 -6 -4 3 0 -5 -2 -0 -7 -3 1 -7 14 -10 -7 -17 33 5 -6 1 -8 1 -0 -3 1 -2 -1
-1 -1 -2 -3 -4 -2 0 -2 1 1 2 4 -9 -7 -8 -1 -4 -3 -1 -1 -4 -2 -5 1 9 -4 1 30 8 -2 -2 3 -3 1 -4 1 -2 -2
-3 -2 -0 -1 -1 -2 -2 -0 -2 -2 3 -0 3 -11 -2 0 -3 -8 -7 1 -5 1 -1 -1 10 1 3 15 -3 6 -4 4 -4 0 -3 -2 -1 -1
0 0 1 0 1 1 -4 -2 -0 -1 0 -2 -1 -1 -9 -2 -2 -2 -5 -5 -5 -2 -2 0 -1 -0 -0 9 19 3 3 1 -4 1 -2 -2 -4 -0
-3 -3 1 4 3 0 1 3 -4 -4 -2 -2 -5 3 -14 2 -3 -1 -3 -4 -14 4 -6 -1 4 -1 -3 54 14 4 3 6 2 -2 -2 1 -6 1
1 4 1 1 1 -3 -2 0 -1 1 3 6 -3 -2 -13 4 2 -2 -4 -2 -3 -4 -4 -15 3 -3 1 -9 22 10 1 3 1 -1 -2 1 -4 -0
0 1 1 3 3 4 1 -1 -4 -2 -4 -3 -1 0 -4 1 3 2 -4 -5 -3 -4 2 -14 4 -3 -7 2 10 17 3 0 3 0 1 -1 -2 -2
0 -1 0 -1 5 1 2 2 -2 -10 4 1 -3 -3 -2 -3 2 1 -5 1 -5 -6 -4 1 -1 4 -11 -4 4 60 13 4 1 1 1 -1 1 -2
-0 -2 -2 0 1 -2 -4 -4 -8 3 -1 -2 -5 -4 -1 -4 -0 8 5 -0 -0 -5 -11 1 -8 3 -5 -17 4 4 34 13 5 1 -1 4 1 -1
-2 -8 -5 -4 0 -3 -2 5 5 7 0 2 -2 -4 -2 -3 -3 1 -1 2 -2 -5 2 1 5 6 1 -12 26 12 14 20 8 12 3 -0 1 -3
7 8 2 2 -1 7 2 -3 1 6 10 8 -1 -2 -4 -5 -2 -0 -0 1 0 -4 6 -5 -2 8 7 1 -1 36 37 14 11 3 5 -1 7 5
-2 -5 -3 -3 -1 -4 -4 -3 2 3 2 1 3 3 -3 -3 1 -2 0 -1 3 0 1 -1 -7 -5 -2 5 -1 2 42 20 17 2 1 1 -7 -6
4 2 -1 -1 2 -1 -2 2 -1 -1 0 -0 -2 -1 1 2 -1 1 -2 -0 1 -5 1 -0 4 10 1 3 -3 -0 7 20 11 2 2 6 2 2
2 0 -2 3 -1 -2 -2 -4 -2 0 9 3 -0 -1 -3 2 -0 1 -2 -0 -1 -2 -5 -5 -3 0 -2 -0 -4 -1 -1 7 28 2 7 2 -0 -7
1 -2 -0 1 -2 -3 -2 -3 -0 -0 -4 -0 2 5 -0 -2 -2 -1 1 0 -3 -1 -4 0 -2 8 9 -8 -1 -4 -5 -1 30 15 6 -1 -0 -7
2 1 -2 -1 -0 3 -1 -1 -4 -4 5 1 2 2 -0 1 5 -1 -3 -1 -2 -1 -3 2 -2 3 2 -5 -2 -5 -8 -2 17 15 -0 -2 -5 -8
2 -1 -1 0 -0 -1 1 -2 -1 1 0 -0 0 1 -1 1 -0 -3 -2 0 -1 0 -0 3 -2 -4 -6 -8 -0 0 0 -8 20 2 4 25 14 8
0 -0 0 -1 -0 1 2 2 4 -2 -1 1 -0 0 1 1 -1 -1 -2 -1 -1 1 0 3 3 9 9 7 4 -2 1 -3 17 -6 4 3 -9 -5
1 2 1 1 -0 0 -0 1 0 2 6 1 -2 1 1 0 -1 -1 -0 -2 -4 8 -2 0 3 2 6 1 -2 -0 -1 5 -2 22 -0 -8 -61 -21
1 2 1 1 3 1 -1 -1 0 0 -1 12 0 -0 1 -2 -1 -1 1 -1 -2 1 -2 -0 1 2 -1 -6 6 4 0 11 -1 12 22 9 -7 11
Height
1496 1495 1494 1494 1494 1492 1492 1490 1488 1484 1478 1476 1475 1475 1474 1472 1471 1469 1467 1468 1470 1470 1475 1475 1476 1478 1483 1490 1498 1505 1512 1515 1520 1525 1527 1531 1534 1536
1490 1489 1489 1488 1488 1488 1486 1485 1484 1482 1478 1473 1473 1470 1470 1468 1466 1464 1463 1463 1465 1465 1469 1470 1472 1477 1480 1484 1492 1500 1506 1511 1516 1522 1525 1528 1532 1535
1484 1483 1482 1482 1480 1481 1481 1479 1477 1477 1471 1468 1468 1467 1463 1462 1461 1459 1458 1457 1458 1460 1460 1463 1467 1472 1477 1479 1486 1493 1500 1507 1511 1518 1523 1526 1530 1533
1476 1475 1474 1474 1473 1472 1472 1472 1471 1470 1466 1460 1461 1461 1458 1458 1455 1453 1451 1452 1450 1452 1453 1459 1462 1465 1472 1473 1478 1486 1493 1500 1506 1511 1519 1523 1527 1531
1467 1466 1466 1465 1464 1464 1464 1463 1463 1462 1460 1456 1453 1456 1454 1451 1450 1449 1446 1445 1446 1446 1449 1450 1456 1461 1465 1469 1472 1478 1488 1494 1500 1506 1514 1520 1523 1527
1457 1456 1456 1456 1455 1456 1455 1455 1455 1454 1453 1450 1447 1448 1450 1447 1446 1444 1441 1440 1439 1442 1443 1446 1450 1451 1456 1463 1467 1472 1481 1488 1494 1500 1508 1515 1520 1524
1447 1446 1445 1445 1446 1445 1445 1446 1446 1446 1445 1444 1442 1442 1444 1443 1442 1441 1438 1435 1435 1435 1435 1438 1441 1442 1443 1450 1452 1462 1472 1480 1487 1494 1502 1509 1516 1520
1436 1435 1434 1435 1435 1436 1437 1438 1439 1437 1437 1438 1438 1435 1437 1439 1437 1436 1435 1433 1429 1432 1429 1429 1431 1435 1442 1445 1447 1452 1463 1473 1480 1488 1496 1503 1511 1517
1427 1425 1423 1423 1424 1425 1428 1428 1429 1431 1432 1432 1430 1431 1430 1433 1432 1432 1430 1430 1427 1427 1428 1421 1425 1427 1433 1434 1438 1442 1454 1466 1475 1481 1490 1497 1505 1514
1416 1415 1414 1414 1415 1418 1418 1418 1418 1419 1421 1422 1422 1423 1424 1426 1426 1426 1426 1425 1423 1421 1422 1415 1418 1418 1425 1431 1434 1439 1445 1457 1467 1475 1484 1492 1500 1510
1406 1405 1405 1404 1405 1408 1409 1408 1407 1405 1409 1412 1413 1414 1416 1418 1419 1420 1418 1420 1417 1417 1418 1416 1413 1412 1416 1420 1428 1437 1435 1448 1459 1469 1478 1486 1495 1505
1397 1396 1396 1397 1396 1398 1398 1398 1396 1396 1401 1402 1404 1406 1408 1409 1412 1414 1414 1414 1415 1413 1414 1414 1411 1414 1411 1415 1420 1423 1430 1439 1452 1463 1471 1481 1490 1499
1390 1388 1387 1387 1387 1388 1389 1388 1387 1392 1392 1394 1394 1396 1398 1400 1401 1403 1406 1407 1407 1407 1409 1410 1409 1409 1407 1412 1409 1414 1423 1431 1446 1458 1466 1476 1484 1490
1384 1382 1380 1379 1379 1380 1381 1380 1382 1384 1384 1384 1385 1386 1388 1390 1392 1395 1398 1398 1399 1401 1402 1404 1405 1406 1405 1407 1408 1411 1415 1423 1434 1446 1457 1470 1481 1488
1377 1374 1373 1373 1371 1370 1372 1372 1374 1374 1375 1376 1377 1378 1380 1383 1386 1388 1390 1391 1392 1392 1393 1397 1399 1400 1403 1402 1402 1406 1414 1416 1426 1435 1447 1457 1468 1479
1369 1366 1366 1365 1365 1363 1363 1363 1364 1365 1366 1367 1368 1371 1374 1375 1378 1380 1382 1384 1383 1383 1385 1388 1390 1394 1392 1392 1397 1399 1402 1412 1417 1426 1439 1452 1463 1471
1361 1358 1356 1356 1355 1355 1355 1355 1356 1357 1357 1358 1360 1362 1365 1367 1369 1371 1374 1376 1376 1377 1377 1380 1382 1383 1385 1387 1392 1394 1398 1404 1413 1418 1430 1440 1452 1461
1354 1351 1349 1348 1347 1346 1346 1347 1347 1347 1348 1350 1352 1355 1357 1359 1361 1363 1365 1366 1368 1371 1372 1374 1376 1378 1379 1380 1384 1386 1391 1398 1405 1411 1420 1429 1441 1452
1345 1343 1341 1340 1339 1338 1337 1338 1337 1339 1342 1342 1344 1346 1348 1349 1352 1355 1356 1358 1360 1363 1365 1369 1370 1371 1371 1370 1376 1379 1385 1391 1398 1403 1409 1418 1430 1441
1339 1337 1334 1332 1331 1330 1329 1329 1330 1331 1332 1333 1335 1337 1339 1341 1343 1345 1348 1350 1352 1354 1357 1360 1360 1361 1361 1363 1369 1373 1377 1384 1389 1395 1403 1418 1430 1445
1334 1331 1328 1326 1324 1323 1322 1321 1321 1321 1323 1324 1326 1328 1331 1333 1335 1337 1340 1342 1343 1345 1347 1348 1350 1353 1357 1360 1362 1363 1369 1375 1384 1388 1397 1402 1413 1429
1329 1325 1322 1320 1317 1316 1315 1314 1313 1313 1314 1315 1317 1320 1322 1325 1327 1330 1332 1334 1335 1337 1338 1342 1345 1349 1352 1352 1353 1356 1361 1367 1377 1384 1390 1388 1389 1402
1324 1320 1317 1314 1311 1309 1307 1306 1306 1306 1307 1307 1309 1312 1315 1317 1319 1322 1324 1327 1328 1331 1332 1335 1335 1338 1338 1343 1346 1347 1353 1355 1364 1373 1381 1390 1399 1409